Location: Dackenheim
(49.5215°N, 8.1854°E)
Time: 23:15:27
(UTC+00:00)

BlueWalker 3 - Pass Details

Date: 27 January 2026
Orbit: 450 x 461 km, 53.2° (Epoch: 11 February)

Event Time Altitude Azimuth Distance (km) Brightness Sun altitude
Rises 18:39:04 0° 274° (W) 2,457 6.9 -23.3°
Reaches altitude 10° 18:41:15 10° 280° (W) 1,584 5.5 -23.7°
Enters shadow 18:43:53 37° 316° (NW) 713 3.0 -24.1°
